Orbital Elements at Epoch 2459000.5 (2020-May-31.0) TDB
Reference: JPL 21 (heliocentric ecliptic J2000)
Element | Value | Uncertainty (1-sigma) | Units |
e | .07506785722974327 | 4.4838e-08 | |
a | 2.720591649219438 | 1.6035e-08 | au |
q | 2.516362663715401 | 1.1915e-07 | au |
i | 3.63509018125527 | 5.1384e-06 | deg |
node | 151.9083583773203 | 7.3134e-05 | deg |
peri | 347.582922751654 | 8.084e-05 | deg |
M | 51.85475960674076 | 3.3895e-05 | deg |
tp | 2458764.408912658669 (2019-Oct-07.90891266) | 0.00015398 | TDB |
period | 1639.054776985811 4.49 | 1.4491e-05 3.967e-08 | d yr |
n | .2196387851430034 | 1.9418e-09 | deg/d |
Q | 2.924820634723474 | 1.7239e-08 | au |
|
| | Orbit Determination Parameters
Additional Information
|